Location: Central Coast
(33.3208°S, 151.2336°E)
Time: 23:03:18
(UTC+11:00)

Vanguard 2 Rocket - Visible Passes

Search period start: 22 October 2017 00:00
Search period end: 01 November 2017 00:00
Orbit: 555 x 3327 km, 32.9° (Epoch: 21 October)

Date Brightness Start Highest point End Pass type
(mag) Time Alt. Az. Time Alt. Az. Time Alt. Az.
22 Oct 9.1 00:37:20 10° WNW 01:01:56 51° E 01:09:15 10° E visible
22 Oct 8.3 03:07:38 42° W 03:13:40 87° N 03:22:28 10° E visible
22 Oct 7.9 05:17:13 10° W 05:28:00 49° NNW 05:34:11 10° NE visible
22 Oct 9.6 21:19:27 10° NNW 21:37:42 44° NE 21:42:57 39° ENE visible
22 Oct 9.6 23:35:07 10° WNW 00:04:46 30° E 00:09:34 10° E visible
23 Oct 8.6 01:54:44 10° W 02:12:55 89° N 02:23:23 10° E visible
23 Oct 8.0 04:16:10 13° W 04:28:27 66° NNW 04:35:51 10° ENE visible
23 Oct 9.9 20:19:56 10° NNW 20:36:14 35° NE 20:49:55 15° E visible
23 Oct 9.2 22:33:30 10° NW 22:53:40 66° NNE 23:09:30 10° E visible
24 Oct 8.8 00:51:56 10° W 01:12:56 80° E 01:24:01 10° E visible
24 Oct 8.3 03:18:34 26° W 03:28:21 79° NNW 03:37:09 10° ENE visible
24 Oct 8.3 05:32:13 10° W 05:42:04 35° NW 05:48:06 10° NNE visible
24 Oct 10.2 19:21:31 10° N 19:35:04 25° NE 19:49:24 10° E visible
24 Oct 9.5 21:32:37 10° NW 21:51:49 56° NNE 22:08:55 10° ESE visible
24 Oct 9.0 23:49:29 10° WNW 00:10:04 83° NNE 00:24:19 10° E visible
25 Oct 8.6 02:09:31 10° W 02:27:41 86° N 02:38:08 10° E visible
25 Oct 8.2 04:29:42 10° WSW 04:42:44 52° NNW 04:50:08 10° NE visible
25 Oct 9.7 20:32:34 10° NNW 20:50:08 46° NE 21:07:42 10° E visible
25 Oct 9.2 22:47:34 10° WNW 23:08:07 77° NNE 23:24:15 10° E visible
26 Oct 8.9 01:06:41 10° W 01:26:29 89° N 01:38:47 10° E visible
26 Oct 8.3 03:27:03 10° WSW 03:42:51 67° NNW 03:51:40 10° ENE visible
26 Oct 9.9 19:33:23 10° NNW 19:48:46 36° NE 20:05:38 10° E visible
26 Oct 9.4 21:46:21 10° NW 22:06:04 68° NNE 22:23:45 10° ESE visible
27 Oct 9.1 00:04:07 10° W 00:24:47 88° N 00:39:05 10° E visible
27 Oct 8.6 02:24:16 10° W 02:42:21 79° NNW 02:52:47 10° ENE visible
27 Oct 8.6 04:44:40 10° W 04:56:43 38° NW 05:03:59 10° NNE visible
27 Oct 9.6 20:45:53 10° NW 21:04:07 58° NNE 21:22:42 10° ESE visible
27 Oct 9.3 23:02:00 10° WNW 23:22:44 84° NNE 23:39:00 10° E visible
28 Oct 8.8 01:21:28 10° W 01:41:14 86° N 01:53:30 10° ENE visible
28 Oct 8.5 03:41:48 10° WSW 03:57:05 54° NNW 04:05:54 10° NE visible
28 Oct 9.7 19:46:12 10° NNW 20:02:31 47° NE 20:21:00 10° ESE visible
28 Oct 9.4 22:00:30 10° WNW 22:20:29 78° NNE 22:38:29 10° E visible
29 Oct 9.1 00:18:52 10° W 00:39:34 89° N 00:53:51 10° E visible
29 Oct 8.6 02:38:59 10° WSW 02:56:48 68° NNW 03:07:15 10° NE visible
29 Oct 9.0 05:00:06 10° W 05:10:24 26° NW 05:17:15 10° N visible
29 Oct 9.5 20:59:44 10° NW 21:18:19 69° NNE 21:37:30 10° ESE visible
29 Oct 9.3 23:16:39 10° W 23:37:27 88° N 23:53:45 10° E visible
30 Oct 8.8 01:36:12 10° W 01:55:52 79° NNW 02:08:08 10° ENE visible
30 Oct 8.8 03:56:45 10° W 04:11:00 40° NW 04:19:42 10° NNE visible
30 Oct 9.6 19:59:40 10° NW 20:16:25 59° NNE 20:35:58 10° ESE visible
30 Oct 9.4 22:15:00 10° WNW 22:35:05 85° NNE 22:53:13 10° E visible
31 Oct 9.1 00:33:38 10° W 00:54:18 86° N 01:08:34 10° ENE visible
31 Oct 8.7 02:53:44 10° WSW 03:10:58 55° NNW 03:21:25 10° NE visible
31 Oct 9.4 05:16:41 10° W 05:23:52 17° NW 05:29:22 10° NNW visible
31 Oct 9.5 21:13:58 10° WNW 21:32:42 79° NNE 21:52:13 10° E visible
